Location: *
(33.8649°S, 62.1526°E)
Time: 12:26:59
(UTC+00:00)

Cosmos 773 Rocket - Pass Details

Date: 17 January 2021
Orbit: 746 x 776 km, 74.1° (Epoch: 02 March)

Event Time Altitude Azimuth Distance (km) Brightness Sun altitude
Rises 15:33:31 0° 360° (N) 3,179 6.9 -6.2°
Reaches altitude 10° 15:35:56 10° 6° (N) 2,266 6.1 -6.6°
Maximum altitude 15:40:50 46° 78° (ENE) 1,007 4.3 -7.5°
Drops below altitude 10° 15:45:49 10° 150° (SSE) 2,310 6.5 -8.3°
Sets 15:48:17 0° 156° (SSE) 3,247 7.4 -8.8°
